IRIDIUM 22 [+]

Last updated on Tue Dec 19 2017 00:19:13 GMT+0000 (Coordinated Universal Time)

1 24907U 97043E 17352.51997818 .00000120 00000-0 35765-4 0 9994 2 24907 86.3971 179.0897 0002033 92.9706 267.1723 14.34224238 64258
UTC large
Height (km)
Speed (km/s)
/
Latitude / Longitude
Inclination (degrees)
Orbital Period (minutes)
Azimuth
Elevation
Range (km)
Doppler Factor

Next 0 passes for location: London (51.5072 / 0.1276)

Sorry there are no passes over London.